Time,TemperatureF,DewpointF,PressureIn,WindDirection,WindDirectionDegrees,WindSpeedMPH,WindSpeedGustMPH,Humidity,HourlyPrecipIn,Conditions,Clouds,dailyrainin,SoftwareType,DateUTC
2013-01-17 00:02:00,6.0,1.0,30.68,NE,50,0.0,-999.0,80,-99.99,,,-99.99,,2013-01-17 07:02:00,
2013-01-17 00:12:00,6.0,1.0,30.68,NE,50,0.0,-999.0,80,-99.99,,,-99.99,,2013-01-17 07:12:00,
2013-01-17 00:22:00,6.0,1.0,30.68,NE,50,0.0,-999.0,80,-99.99,,,-99.99,,2013-01-17 07:22:00,
2013-01-17 00:32:00,5.0,0.0,30.68,NE,50,0.0,-999.0,79,-99.99,,,-99.99,,2013-01-17 07:32:00,
2013-01-17 00:42:00,5.0,0.0,30.68,NE,50,0.0,-999.0,79,-99.99,,,-99.99,,2013-01-17 07:42:00,
2013-01-17 00:52:00,5.0,0.0,30.69,NE,50,0.0,-999.0,80,-99.99,,,-99.99,,2013-01-17 07:52:00,
2013-01-17 01:02:00,5.0,0.0,30.69,NE,50,0.0,-999.0,81,-99.99,,,-99.99,,2013-01-17 08:02:00,
2013-01-17 01:12:00,5.0,0.0,30.69,NE,50,0.0,-999.0,81,-99.99,,,-99.99,,2013-01-17 08:12:00,
2013-01-17 01:22:00,5.0,0.0,30.69,NE,50,0.0,-999.0,81,-99.99,,,-99.99,,2013-01-17 08:22:00,
2013-01-17 01:32:00,4.0,0.0,30.70,NE,50,0.0,-999.0,82,-99.99,,,-99.99,,2013-01-17 08:32:00,
2013-01-17 01:43:00,4.0,0.0,30.70,NE,50,0.0,-999.0,82,-99.99,,,-99.99,,2013-01-17 08:43:00,
2013-01-17 01:53:00,4.0,-1.0,30.70,NE,50,0.0,-999.0,81,-99.99,,,-99.99,,2013-01-17 08:53:00,
2013-01-17 02:02:00,4.0,-1.0,30.70,NE,50,0.0,-999.0,81,-99.99,,,-99.99,,2013-01-17 09:02:00,
2013-01-17 02:12:00,4.0,-1.0,30.70,NE,50,0.0,-999.0,81,-99.99,,,-99.99,,2013-01-17 09:12:00,
2013-01-17 02:22:00,4.0,0.0,30.71,NE,50,0.0,-999.0,82,-99.99,,,-99.99,,2013-01-17 09:22:00,
2013-01-17 02:32:00,4.0,0.0,30.71,NE,50,0.0,-999.0,82,-99.99,,,-99.99,,2013-01-17 09:32:00,
2013-01-17 02:42:00,4.0,0.0,30.71,NE,50,0.0,-999.0,82,-99.99,,,-99.99,,2013-01-17 09:42:00,
2013-01-17 02:52:00,4.0,0.0,30.71,NE,50,0.0,-999.0,82,-99.99,,,-99.99,,2013-01-17 09:52:00,
2013-01-17 03:02:00,4.0,0.0,30.71,NE,50,0.0,-999.0,82,-99.99,,,-99.99,,2013-01-17 10:02:00,
2013-01-17 03:12:00,4.0,0.0,30.71,NE,50,0.0,-999.0,82,-99.99,,,-99.99,,2013-01-17 10:12:00,
2013-01-17 03:22:00,4.0,-1.0,30.71,NE,50,0.0,-999.0,81,-99.99,,,-99.99,,2013-01-17 10:22:00,
2013-01-17 03:32:00,3.0,-2.0,30.71,NE,50,0.0,-999.0,80,-99.99,,,-99.99,,2013-01-17 10:32:00,
2013-01-17 03:42:00,3.0,-2.0,30.71,NE,50,0.0,-999.0,80,-99.99,,,-99.99,,2013-01-17 10:42:00,
2013-01-17 03:53:00,3.0,-1.0,30.71,NE,50,0.0,-999.0,81,-99.99,,,-99.99,,2013-01-17 10:53:00,
2013-01-17 04:02:00,3.0,-1.0,30.71,NE,50,0.0,-999.0,81,-99.99,,,-99.99,,2013-01-17 11:02:00,
2013-01-17 04:12:00,3.0,-1.0,30.71,NE,50,0.0,-999.0,81,-99.99,,,-99.99,,2013-01-17 11:12:00,
2013-01-17 04:22:00,3.0,-1.0,30.72,NE,50,0.0,-999.0,82,-99.99,,,-99.99,,2013-01-17 11:22:00,
2013-01-17 04:32:00,3.0,-1.0,30.71,NE,50,0.0,-999.0,83,-99.99,,,-99.99,,2013-01-17 11:32:00,
2013-01-17 04:42:00,3.0,-1.0,30.71,NE,50,0.0,-999.0,83,-99.99,,,-99.99,,2013-01-17 11:42:00,
2013-01-17 04:53:00,3.0,-1.0,30.71,NE,50,0.0,-999.0,81,-99.99,,,-99.99,,2013-01-17 11:53:00,
2013-01-17 05:02:00,3.0,-1.0,30.72,NE,50,0.0,-999.0,83,-99.99,,,-99.99,,2013-01-17 12:02:00,
2013-01-17 05:12:00,3.0,-1.0,30.72,NE,50,0.0,-999.0,83,-99.99,,,-99.99,,2013-01-17 12:12:00,
2013-01-17 05:22:00,5.0,2.0,30.72,NE,50,0.0,-999.0,87,-99.99,,,-99.99,,2013-01-17 12:22:00,
2013-01-17 05:32:00,7.0,2.0,30.71,NE,50,0.0,-999.0,81,-99.99,,,-99.99,,2013-01-17 12:32:00,
2013-01-17 05:42:00,7.0,2.0,30.71,NE,50,0.0,-999.0,81,-99.99,,,-99.99,,2013-01-17 12:42:00,
2013-01-17 05:53:00,6.0,2.0,30.72,NE,50,0.0,-999.0,82,-99.99,,,-99.99,,2013-01-17 12:53:00,
2013-01-17 06:03:00,5.0,0.0,30.72,NE,50,0.0,-999.0,80,-99.99,,,-99.99,,2013-01-17 13:03:00,
2013-01-17 06:12:00,5.0,0.0,30.72,NE,50,0.0,-999.0,80,-99.99,,,-99.99,,2013-01-17 13:12:00,
2013-01-17 06:22:00,3.0,-2.0,30.72,NE,50,0.0,-999.0,80,-99.99,,,-99.99,,2013-01-17 13:22:00,
2013-01-17 06:33:00,3.0,-1.0,30.73,NE,50,0.0,-999.0,81,-99.99,,,-99.99,,2013-01-17 13:33:00,
2013-01-17 06:43:00,3.0,-1.0,30.73,NE,50,0.0,-999.0,81,-99.99,,,-99.99,,2013-01-17 13:43:00,
2013-01-17 06:53:00,4.0,0.0,30.74,NE,50,0.0,-999.0,84,-99.99,,,-99.99,,2013-01-17 13:53:00,
2013-01-17 07:03:00,4.0,0.0,30.74,NE,50,0.0,-999.0,84,-99.99,,,-99.99,,2013-01-17 14:03:00,
2013-01-17 07:12:00,4.0,0.0,30.74,NE,50,0.0,-999.0,84,-99.99,,,-99.99,,2013-01-17 14:12:00,
2013-01-17 07:23:00,5.0,1.0,30.76,NE,50,0.0,-999.0,82,-99.99,,,-99.99,,2013-01-17 14:23:00,
2013-01-17 07:33:00,5.0,0.0,30.76,NE,50,0.0,-999.0,81,-99.99,,,-99.99,,2013-01-17 14:33:00,
2013-01-17 07:43:00,5.0,0.0,30.76,NE,50,0.0,-999.0,81,-99.99,,,-99.99,,2013-01-17 14:43:00,
2013-01-17 07:53:00,4.0,0.0,30.77,NE,50,0.0,-999.0,82,-99.99,,,-99.99,,2013-01-17 14:53:00,
2013-01-17 08:03:00,5.0,1.0,30.78,NE,50,0.0,-999.0,82,-99.99,,,-99.99,,2013-01-17 15:03:00,
2013-01-17 08:12:00,5.0,1.0,30.78,NE,50,0.0,-999.0,82,-99.99,,,-99.99,,2013-01-17 15:12:00,
2013-01-17 08:22:00,5.0,1.0,30.78,NE,50,0.0,-999.0,83,-99.99,,,-99.99,,2013-01-17 15:22:00,
2013-01-17 08:33:00,7.0,3.0,30.79,NE,50,0.0,-999.0,84,-99.99,,,-99.99,,2013-01-17 15:33:00,
2013-01-17 08:43:00,7.0,3.0,30.79,NE,50,0.0,-999.0,84,-99.99,,,-99.99,,2013-01-17 15:43:00,
2013-01-17 08:53:00,8.0,4.0,30.80,NE,50,0.0,-999.0,84,-99.99,,,-99.99,,2013-01-17 15:53:00,
2013-01-17 09:02:00,8.0,4.0,30.80,NE,50,0.0,-999.0,84,-99.99,,,-99.99,,2013-01-17 16:02:00,
2013-01-17 09:12:00,8.0,4.0,30.80,NE,50,0.0,-999.0,84,-99.99,,,-99.99,,2013-01-17 16:12:00,
2013-01-17 09:22:00,13.0,10.0,30.82,NE,50,0.0,-999.0,86,-99.99,,,-99.99,,2013-01-17 16:22:00,
2013-01-17 09:33:00,15.0,11.0,30.82,NE,50,0.0,-999.0,85,-99.99,,,-99.99,,2013-01-17 16:33:00,
2013-01-17 09:44:00,15.0,11.0,30.82,NE,50,0.0,-999.0,85,-99.99,,,-99.99,,2013-01-17 16:44:00,
2013-01-17 09:53:00,18.0,13.0,30.82,NE,50,0.0,-999.0,81,-99.99,,,-99.99,,2013-01-17 16:53:00,
2013-01-17 10:03:00,20.0,8.0,30.82,NE,50,0.0,-999.0,60,-99.99,,,-99.99,,2013-01-17 17:03:00,
2013-01-17 10:12:00,20.0,8.0,30.82,NE,50,0.0,-999.0,60,-99.99,,,-99.99,,2013-01-17 17:12:00,
2013-01-17 10:22:00,23.0,8.0,30.81,NE,49,0.0,-999.0,51,-99.99,,,-99.99,,2013-01-17 17:22:00,
2013-01-17 10:33:00,25.0,6.0,30.82,NE,49,0.0,-999.0,43,-99.99,,,-99.99,,2013-01-17 17:33:00,
2013-01-17 10:43:00,25.0,6.0,30.82,NE,49,0.0,-999.0,43,-99.99,,,-99.99,,2013-01-17 17:43:00,
2013-01-17 10:53:00,27.0,9.0,30.81,NE,49,0.0,-999.0,47,-99.99,,,-99.99,,2013-01-17 17:53:00,
2013-01-17 11:03:00,27.0,9.0,30.81,NE,49,0.0,-999.0,47,-99.99,,,-99.99,,2013-01-17 18:03:00,
2013-01-17 11:12:00,27.0,9.0,30.81,NE,49,0.0,-999.0,47,-99.99,,,-99.99,,2013-01-17 18:12:00,
2013-01-17 11:22:00,30.0,9.0,30.80,WNW,290,1.0,-999.0,40,-99.99,,,-99.99,,2013-01-17 18:22:00,
2013-01-17 11:33:00,32.0,10.0,30.79,WNW,288,0.0,-999.0,39,-99.99,,,-99.99,,2013-01-17 18:33:00,
2013-01-17 11:44:00,32.0,10.0,30.79,WNW,288,0.0,-999.0,39,-99.99,,,-99.99,,2013-01-17 18:44:00,
2013-01-17 11:53:00,32.0,12.0,30.78,West,268,0.0,-999.0,42,-99.99,,,-99.99,,2013-01-17 18:53:00,
2013-01-17 12:03:00,32.0,10.0,30.77,West,267,0.0,-999.0,39,-99.99,,,-99.99,,2013-01-17 19:03:00,
2013-01-17 12:12:00,32.0,10.0,30.77,West,267,0.0,-999.0,39,-99.99,,,-99.99,,2013-01-17 19:12:00,
2013-01-17 12:22:00,32.0,12.0,30.76,West,277,0.0,-999.0,43,-99.99,,,-99.99,,2013-01-17 19:22:00,
2013-01-17 12:33:00,33.0,12.0,30.76,West,281,0.0,-999.0,42,-99.99,,,-99.99,,2013-01-17 19:33:00,
2013-01-17 12:43:00,33.0,12.0,30.76,West,281,0.0,-999.0,42,-99.99,,,-99.99,,2013-01-17 19:43:00,
2013-01-17 12:53:00,33.0,11.0,30.75,WNW,282,0.0,-999.0,39,-99.99,,,-99.99,,2013-01-17 19:53:00,
2013-01-17 13:03:00,34.0,11.0,30.74,NNE,14,0.0,-999.0,37,-99.99,,,-99.99,,2013-01-17 20:03:00,
2013-01-17 13:12:00,34.0,11.0,30.74,NNE,14,0.0,-999.0,37,-99.99,,,-99.99,,2013-01-17 20:12:00,
2013-01-17 13:23:00,33.0,11.0,30.73,NE,36,0.0,-999.0,39,-99.99,,,-99.99,,2013-01-17 20:23:00,
2013-01-17 13:33:00,33.0,10.0,30.72,WNW,300,0.0,-999.0,38,-99.99,,,-99.99,,2013-01-17 20:33:00,
2013-01-17 13:43:00,33.0,10.0,30.72,WNW,300,0.0,-999.0,38,-99.99,,,-99.99,,2013-01-17 20:43:00,
2013-01-17 13:54:00,33.0,10.0,30.71,WNW,302,0.0,-999.0,38,-99.99,,,-99.99,,2013-01-17 20:54:00,
2013-01-17 14:03:00,33.0,11.0,30.71,NNE,27,0.0,-999.0,39,-99.99,,,-99.99,,2013-01-17 21:03:00,
2013-01-17 14:12:00,33.0,11.0,30.71,NNE,27,0.0,-999.0,39,-99.99,,,-99.99,,2013-01-17 21:12:00,
2013-01-17 14:23:00,33.0,11.0,30.71,West,279,0.0,-999.0,40,-99.99,,,-99.99,,2013-01-17 21:23:00,
2013-01-17 14:33:00,33.0,11.0,30.70,SW,236,1.0,-999.0,40,-99.99,,,-99.99,,2013-01-17 21:33:00,
2013-01-17 14:43:00,33.0,11.0,30.70,SW,236,1.0,-999.0,40,-99.99,,,-99.99,,2013-01-17 21:43:00,
2013-01-17 14:53:00,33.0,11.0,30.69,West,268,0.0,-999.0,39,-99.99,,,-99.99,,2013-01-17 21:53:00,
2013-01-17 15:03:00,33.0,11.0,30.70,West,269,0.0,-999.0,39,-99.99,,,-99.99,,2013-01-17 22:03:00,
2013-01-17 15:12:00,33.0,11.0,30.70,West,269,0.0,-999.0,39,-99.99,,,-99.99,,2013-01-17 22:12:00,
2013-01-17 15:23:00,32.0,10.0,30.70,West,265,0.0,-999.0,40,-99.99,,,-99.99,,2013-01-17 22:23:00,
2013-01-17 15:33:00,31.0,9.0,30.69,West,265,0.0,-999.0,39,-99.99,,,-99.99,,2013-01-17 22:33:00,
2013-01-17 15:42:00,31.0,9.0,30.69,West,265,0.0,-999.0,39,-99.99,,,-99.99,,2013-01-17 22:42:00,
2013-01-17 15:53:00,31.0,11.0,30.69,West,265,0.0,-999.0,42,-99.99,,,-99.99,,2013-01-17 22:53:00,
2013-01-17 16:03:00,30.0,10.0,30.70,West,265,0.0,-999.0,43,-99.99,,,-99.99,,2013-01-17 23:03:00,
2013-01-17 16:12:00,30.0,10.0,30.70,West,265,0.0,-999.0,43,-99.99,,,-99.99,,2013-01-17 23:12:00,
2013-01-17 16:22:00,29.0,10.0,30.71,West,265,0.0,-999.0,45,-99.99,,,-99.99,,2013-01-17 23:22:00,
2013-01-17 16:33:00,28.0,10.0,30.72,West,265,0.0,-999.0,47,-99.99,,,-99.99,,2013-01-17 23:33:00,
2013-01-17 16:42:00,28.0,10.0,30.72,West,265,0.0,-999.0,47,-99.99,,,-99.99,,2013-01-17 23:42:00,
2013-01-17 16:53:00,26.0,9.0,30.72,West,265,0.0,-999.0,47,-99.99,,,-99.99,,2013-01-17 23:53:00,
2013-01-17 17:02:00,25.0,8.0,30.73,West,265,0.0,-999.0,47,-99.99,,,-99.99,,2013-01-18 00:02:00,
2013-01-17 17:12:00,25.0,8.0,30.73,West,265,0.0,-999.0,47,-99.99,,,-99.99,,2013-01-18 00:12:00,
2013-01-17 17:23:00,25.0,9.0,30.73,West,265,0.0,-999.0,49,-99.99,,,-99.99,,2013-01-18 00:23:00,
2013-01-17 17:32:00,25.0,9.0,30.73,West,265,0.0,-999.0,49,-99.99,,,-99.99,,2013-01-18 00:32:00,
2013-01-17 17:42:00,24.0,9.0,30.73,West,265,0.0,-999.0,52,-99.99,,,-99.99,,2013-01-18 00:42:00,
2013-01-17 17:53:00,23.0,8.0,30.73,West,265,0.0,-999.0,51,-99.99,,,-99.99,,2013-01-18 00:53:00,
2013-01-17 18:02:00,22.0,7.0,30.75,West,265,0.0,-999.0,51,-99.99,,,-99.99,,2013-01-18 01:02:00,
2013-01-17 18:12:00,22.0,7.0,30.75,West,265,0.0,-999.0,51,-99.99,,,-99.99,,2013-01-18 01:12:00,
2013-01-17 18:22:00,21.0,5.0,30.75,West,265,0.0,-999.0,49,-99.99,,,-99.99,,2013-01-18 01:22:00,
2013-01-17 18:33:00,20.0,4.0,30.74,West,265,0.0,-999.0,49,-99.99,,,-99.99,,2013-01-18 01:33:00,
2013-01-17 18:42:00,20.0,4.0,30.74,West,265,0.0,-999.0,49,-99.99,,,-99.99,,2013-01-18 01:42:00,
2013-01-17 18:53:00,19.0,3.0,30.74,West,265,0.0,-999.0,49,-99.99,,,-99.99,,2013-01-18 01:53:00,
2013-01-17 19:02:00,18.0,3.0,30.75,West,265,0.0,-999.0,51,-99.99,,,-99.99,,2013-01-18 02:02:00,
2013-01-17 19:12:00,18.0,3.0,30.75,West,265,0.0,-999.0,51,-99.99,,,-99.99,,2013-01-18 02:12:00,
2013-01-17 19:22:00,18.0,3.0,30.75,West,265,0.0,-999.0,51,-99.99,,,-99.99,,2013-01-18 02:22:00,
2013-01-17 19:32:00,17.0,2.0,30.75,West,265,0.0,-999.0,51,-99.99,,,-99.99,,2013-01-18 02:32:00,
2013-01-17 19:42:00,17.0,2.0,30.75,West,265,0.0,-999.0,51,-99.99,,,-99.99,,2013-01-18 02:42:00,
2013-01-17 19:53:00,19.0,2.0,30.74,West,264,1.0,-999.0,46,-99.99,,,-99.99,,2013-01-18 02:53:00,
2013-01-17 20:02:00,21.0,2.0,30.74,NNE,33,1.0,-999.0,42,-99.99,,,-99.99,,2013-01-18 03:02:00,
2013-01-17 20:12:00,21.0,2.0,30.74,NNE,33,1.0,-999.0,42,-99.99,,,-99.99,,2013-01-18 03:12:00,
2013-01-17 20:22:00,21.0,2.0,30.74,South,183,0.0,-999.0,42,-99.99,,,-99.99,,2013-01-18 03:22:00,
2013-01-17 20:33:00,20.0,1.0,30.74,South,183,0.0,-999.0,42,-99.99,,,-99.99,,2013-01-18 03:33:00,
2013-01-17 20:42:00,20.0,1.0,30.74,South,183,0.0,-999.0,42,-99.99,,,-99.99,,2013-01-18 03:42:00,
2013-01-17 20:53:00,19.0,1.0,30.74,NE,46,0.0,-999.0,45,-99.99,,,-99.99,,2013-01-18 03:53:00,
2013-01-17 21:02:00,18.0,0.0,30.73,NE,46,0.0,-999.0,44,-99.99,,,-99.99,,2013-01-18 04:02:00,
2013-01-17 21:12:00,18.0,0.0,30.73,NE,46,0.0,-999.0,44,-99.99,,,-99.99,,2013-01-18 04:12:00,
2013-01-17 21:22:00,18.0,0.0,30.73,NE,46,0.0,-999.0,44,-99.99,,,-99.99,,2013-01-18 04:22:00,
2013-01-17 21:32:00,21.0,-2.0,30.73,NE,53,1.0,-999.0,36,-99.99,,,-99.99,,2013-01-18 04:32:00,
2013-01-17 21:42:00,21.0,-2.0,30.73,NE,53,1.0,-999.0,36,-99.99,,,-99.99,,2013-01-18 04:42:00,
2013-01-17 21:53:00,23.0,-1.0,30.73,ENE,71,1.0,-999.0,34,-99.99,,,-99.99,,2013-01-18 04:53:00,
2013-01-17 22:03:00,24.0,-2.0,30.72,ENE,67,2.0,-999.0,32,-99.99,,,-99.99,,2013-01-18 05:03:00,
2013-01-17 22:12:00,24.0,-2.0,30.72,ENE,67,2.0,-999.0,32,-99.99,,,-99.99,,2013-01-18 05:12:00,
2013-01-17 22:22:00,24.0,-2.0,30.72,ENE,67,2.0,-999.0,32,-99.99,,,-99.99,,2013-01-18 05:22:00,
2013-01-17 22:33:00,25.0,-1.0,30.70,East,96,2.0,-999.0,31,-99.99,,,-99.99,,2013-01-18 05:33:00,
2013-01-17 22:42:00,25.0,-1.0,30.70,East,96,2.0,-999.0,31,-99.99,,,-99.99,,2013-01-18 05:42:00,
2013-01-17 22:53:00,25.0,-2.0,30.69,NNW,336,0.0,-999.0,30,-99.99,,,-99.99,,2013-01-18 05:53:00,
2013-01-17 23:02:00,24.0,-3.0,30.69,East,84,0.0,-999.0,30,-99.99,,,-99.99,,2013-01-18 06:02:00,
2013-01-17 23:12:00,24.0,-3.0,30.69,East,84,0.0,-999.0,30,-99.99,,,-99.99,,2013-01-18 06:12:00,
2013-01-17 23:22:00,24.0,-3.0,30.69,East,84,0.0,-999.0,30,-99.99,,,-99.99,,2013-01-18 06:22:00,
2013-01-17 23:32:00,23.0,-2.0,30.68,WSW,257,0.0,-999.0,32,-99.99,,,-99.99,,2013-01-18 06:32:00,
2013-01-17 23:43:00,23.0,-2.0,30.68,WSW,257,0.0,-999.0,32,-99.99,,,-99.99,,2013-01-18 06:43:00,
2013-01-17 23:53:00,21.0,-4.0,30.67,WSW,254,0.0,-999.0,33,-99.99,,,-99.99,,2013-01-18 06:53:00,